Simultaneous Nadir Overpasses (SNOs) Predictions

Prediction of SNOs between NOAA-15 and METOP-C Satellite Orbit:

Table of predicted SNOs for the next 14.0 days since TLE Epoch: 1/23/2022
Index Date (NOAA-15) Time (NOAA-15) Lat,Lon (NOAA-15) SZA (NOAA-15 ) Date (METOP-C) Time (METOP-C) Lat,Lon (METOP-C) SZA (METOP-C ) Distance(km) Time Diff (sec)
1 01/31/2022 06:32:45 81.03, 120.14 99.92 01/31/2022 06:31:32 81.01, 119.26 99.80 15.56 73
2 01/31/2022 07:23:20 -81.03, -72.61 80.10 01/31/2022 07:22:11 -81.04, -72.54 80.11 1.64 69
3 01/31/2022 08:13:48 81.04, 94.52 99.88 01/31/2022 08:12:52 81.03, 94.50 99.85 1.36 56
4 01/31/2022 09:04:22 -81.03, -97.86 80.12 01/31/2022 09:03:33 -81.04, -98.04 80.15 3.10 49
5 01/31/2022 09:54:50 81.04, 69.27 99.86 01/31/2022 09:54:13 81.04, 69.38 99.85 1.90 37
6 01/31/2022 10:45:24 -81.03,-123.11 80.14 01/31/2022 10:44:54 -81.05,-123.16 80.14 1.77 30
7 01/31/2022 11:35:52 81.04, 44.02 99.84 01/31/2022 11:35:35 81.04, 43.88 99.82 2.50 17
8 01/31/2022 12:26:27 -81.05,-148.73 80.18 01/31/2022 12:26:16 -81.04,-148.65 80.18 1.72 11
9 01/31/2022 13:16:54 81.04, 18.77 99.82 01/31/2022 13:16:56 81.04, 18.76 99.82 0.09 2
10 01/31/2022 14:07:29 -81.05,-173.99 80.20 01/31/2022 14:07:38 -81.03,-174.14 80.22 3.03 9
11 01/31/2022 14:57:56 81.04, -6.49 99.80 01/31/2022 14:58:17 81.05, -6.36 99.83 2.40 21
12 01/31/2022 15:48:31 -81.05, 160.76 80.22 01/31/2022 15:48:59 -81.04, 160.74 80.21 0.62 28
13 01/31/2022 16:38:58 81.04, -31.74 99.78 01/31/2022 16:39:39 81.05, -31.86 99.79 2.07 41
14 01/31/2022 17:29:33 -81.05, 135.51 80.24 01/31/2022 17:30:20 -81.05, 135.62 80.21 1.98 47
15 01/31/2022 18:20:00 81.04, -56.99 99.76 01/31/2022 18:21:00 81.06, -56.98 99.80 1.40 60



Historial Predications of SNOs between NOAA-15 and METOP-C
